GW2492 Weather Reports


Display with metric or nautical units.
time (UTC)temp
F
wind
direction
speed
MPH
gust
MPH
rain 1hr
in
rain 24hr
in
rain mn
in
humidity
%
barometer
mb
20260504190053 82 229 16.0 22.0 0.00 0.00 0.00 53 1010.6
20260504184545 80 211 16.0 22.0 0.00 0.00 0.00 55 1010.9
20260504183043 80 199 15.0 24.0 0.00 0.00 0.00 55 1011.2
20260504181543 80 209 17.0 25.0 0.00 0.00 0.00 56 1011.4
20260504180106 78 236 15.0 23.0 0.00 0.00 0.00 58 1011.7
20260504174547 78 190 18.0 25.0 0.00 0.00 0.00 60 1012.0
20260504173058 77 217 15.0 24.0 0.00 0.00 0.00 61 1012.0
20260504171546 76 209 18.0 25.0 0.00 0.00 0.00 60 1012.4
20260504120141 61 206 13.0 19.0 0.00 0.00 0.00 80 1012.5
20260504081547 62 213 5.0 9.0 0.00 0.00 0.00 67 1013.5
20260504044546 66 194 8.0 14.0 0.00 0.00 0.00 62 1016.1
20260504043053 66 187 9.0 15.0 0.00 0.00 0.00 62 1016.2
20260504041550 66 175 10.0 16.0 0.00 0.00 0.00 62 1016.1
20260504040049 66 186 9.0 14.0 0.00 0.00 0.00 63 1016.4
20260504034547 66 198 9.0 16.0 0.00 0.00 0.00 64 1016.1
20260504033046 65 164 7.0 11.0 0.00 0.00 0.00 65 1016.0
20260504031546 65 166 9.0 11.0 0.00 0.00 0.00 64 1015.9
20260504030045 66 161 7.0 13.0 0.00 0.00 0.00 63 1016.0
20260504024547 67 142 8.0 12.0 0.00 0.00 0.00 60 1016.0
20260504023042 68 153 7.0 10.0 0.00 0.00 0.00 58 1015.8
20260504021551 69 142 9.0 11.0 0.00 0.00 0.00 55 1016.0
20260504020058 69 153 7.0 9.0 0.00 0.00 0.00 55 1015.8
20260504014546 69 163 7.0 10.0 0.00 0.00 0.00 55 1015.8
20260504013055 71 182 9.0 13.0 0.00 0.00 0.00 52 1016.0
20260504011541 72 171 10.0 14.0 0.00 0.00 0.00 50 1015.8
20260504010046 72 175 12.0 16.0 0.00 0.00 0.00 48 1015.8
20260504004546 73 178 8.0 13.0 0.00 0.00 0.00 47 1015.7
20260504003045 73 190 11.0 19.0 0.00 0.00 0.00 44 1015.8
20260504001547 74 189 12.0 18.0 0.00 0.00 0.00 45 1015.8
20260504000045 74 190 12.0 20.0 0.00 0.00 0.00 43 1016.0
20260503234538 74 193 14.0 20.0 0.00 0.00 0.00 42 1016.2
20260503233046 75 200 15.0 21.0 0.00 0.00 0.00 43 1016.4
20260503231549 75 181 13.0 21.0 0.00 0.00 0.00 44 1016.2
20260503230045 76 180 12.0 17.0 0.00 0.00 0.00 44 1016.3
20260503224541 75 173 12.0 19.0 0.00 0.00 0.00 44 1016.4
20260503223040 75 185 10.0 19.0 0.00 0.00 0.00 44 1016.7
20260503221558 75 184 12.0 18.0 0.00 0.00 0.00 43 1017.0
20260503220045 75 178 14.0 21.0 0.00 0.00 0.00 41 1016.8
20260503214544 76 225 12.0 19.0 0.00 0.00 0.00 42 1017.0
20260503213046 76 175 12.0 19.0 0.00 0.00 0.00 41 1017.1
20260503211542 76 191 14.0 21.0 0.00 0.00 0.00 41 1017.6
20260503210046 75 155 8.0 20.0 0.00 0.00 0.00 42 1017.8
20260503204601 76 181 10.0 21.0 0.00 0.00 0.00 43 1018.1
20260503203046 75 198 8.0 18.0 0.00 0.00 0.00 42 1018.6
20260503201541 75 213 8.0 20.0 0.00 0.00 0.00 43 1018.8
20260503200041 75 163 11.0 23.0 0.00 0.00 0.00 44 1019.2
20260503194547 75 163 12.0 19.0 0.00 0.00 0.00 45 1019.2
20260503193048 75 163 14.0 22.0 0.00 0.00 0.00 44 1019.6
20260503191606 74 161 12.0 21.0 0.00 0.00 0.00 44 1020.0